Theta_e
331 331 332 330 331 334 337 338 334 333 333 331 338 343 345 343 341 341 349 349 341 341 341 352 347 348 347 345 352 351 353 354 355 355 356 357 356 354 354 353 352 352 350 351
331 331 332 332 332 334 333 331 332 332 333 330 344 348 346 342 343 343 343 350 346 344 348 351 348 349 339 340 349 341 352 357 355 357 356 354 354 353 352 353 353 352 352 352
330 332 332 332 332 334 331 328 329 334 335 332 347 346 342 342 339 342 349 347 348 348 348 349 351 347 346 348 346 353 350 359 355 355 357 358 358 355 354 354 354 353 354 354
330 332 333 330 333 332 326 329 331 333 328 329 335 350 344 345 342 345 344 344 345 346 348 346 346 350 349 350 353 352 357 359 357 356 356 356 356 356 354 355 353 353 355 354
330 331 330 331 331 330 328 330 331 330 328 333 342 339 342 343 341 338 340 341 341 347 348 349 351 354 352 357 357 359 359 361 360 359 358 358 357 357 355 356 354 354 355 354
328 328 328 330 329 328 330 329 327 327 324 325 337 343 343 346 341 341 344 342 342 348 350 349 353 354 355 360 361 359 362 362 361 360 359 359 357 358 357 356 354 352 352 352
327 327 328 329 327 327 328 326 325 329 330 333 339 346 349 346 343 343 344 342 344 346 350 353 355 354 354 356 361 362 361 361 361 363 362 360 358 358 357 356 354 352 351 350
326 326 327 328 325 326 327 324 324 333 339 341 347 356 351 347 344 341 339 342 345 347 351 355 355 356 355 354 357 359 360 361 361 359 357 355 347 345 346 345 349 351 350 343
324 326 326 327 327 326 326 327 327 330 334 348 353 351 352 347 345 342 343 344 345 347 350 354 355 356 356 355 358 359 360 360 358 353 348 346 344 345 348 349 349 349 347 345
324 325 330 327 326 326 326 328 331 334 344 350 354 353 355 350 342 343 344 345 344 347 348 350 352 355 357 357 358 359 359 357 354 350 347 344 345 345 345 346 346 345 344 346
323 324 335 336 330 328 329 329 331 338 340 344 350 353 343 343 338 342 344 346 345 346 348 350 351 354 354 354 354 353 353 355 354 351 348 341 341 340 341 344 344 345 344 345
324 324 335 335 333 334 331 334 334 340 346 345 347 352 344 342 342 342 349 349 346 347 349 349 351 352 353 352 353 354 353 353 355 351 351 348 340 339 340 341 341 342 342 342
325 323 334 340 337 337 340 339 336 332 339 339 353 357 343 340 342 339 352 353 352 351 351 353 353 356 359 359 358 357 356 356 356 354 353 351 349 343 341 340 344 349 350 348
330 324 327 337 340 339 340 339 338 330 332 335 337 348 342 342 341 345 354 352 352 356 355 342 342 358 360 360 359 358 358 357 356 355 355 354 353 353 351 351 351 352 351 351
328 329 340 339 337 337 339 338 337 337 333 333 335 344 344 344 343 352 353 353 359 359 358 357 358 357 356 353 353 352 352 353 351 351 348 349 348 349 348 347 347 347 348 350
330 333 340 340 338 338 339 337 337 339 340 333 348 349 345 344 346 353 357 358 357 355 356 356 355 353 352 347 345 344 343 343 342 344 346 344 341 340 341 342 341 346 347 347
329 330 340 350 342 341 340 342 340 341 341 336 345 348 346 347 353 355 355 356 356 356 354 353 351 347 345 343 342 342 341 340 340 339 338 339 338 338 338 338 339 343 341 341
337 348 346 345 346 347 340 340 340 339 338 336 339 349 348 348 347 353 351 353 354 353 353 351 348 347 344 343 342 341 342 342 342 341 341 341 341 339 339 338 340 340 341 341
336 340 348 347 350 345 341 341 341 339 341 337 342 347 348 347 348 349 349 348 348 347 348 349 349 346 345 345 342 341 341 342 344 343 342 346 343 342 341 341 341 340 340 338
339 340 345 348 349 347 342 339 337 336 342 342 344 345 343 343 347 351 337 340 340 347 346 345 344 341 341 341 341 344 342 342 344 340 339 339 340 341 341 340 339 340 341 340
345 348 344 348 344 343 339 339 339 347 346 346 344 344 347 354 352 343 335 336 343 340 339 337 337 338 337 337 338 338 342 343 341 340 339 338 338 338 338 338 336 336 335 335
347 347 347 342 347 348 342 343 345 345 348 348 351 352 351 351 348 344 341 339 337 339 340 337 337 336 337 337 337 340 339 339 337 335 336 337 336 335 334 334 334 335 336 337
345 343 346 343 342 340 341 344 340 339 344 347 348 349 350 346 344 342 336 336 339 338 336 336 338 338 336 337 337 339 339 339 338 338 338 337 336 335 334 334 333 333 333 333
343 341 340 341 340 342 340 341 339 340 341 343 343 343 341 342 342 339 333 332 335 336 337 334 334 334 335 336 336 334 334 334 334 334 335 335 335 334 334 333 333 334 334 333
339 340 342 339 337 338 340 338 338 339 338 338 336 335 335 334 334 335 335 335 337 336 336 335 335 336 337 335 334 335 335 335 335 335 335 335 334 333 331 331 331 330 329 331
335 337 338 340 338 340 336 335 337 338 337 336 336 335 333 331 332 334 335 336 337 336 335 336 337 335 334 333 331 330 328 328 328 330 330 332 332 329 328 328 328 327 327 328
Wind_Speed
8 4 10 15 15 17 5 3 6 1 7 6 14 16 10 11 11 15 10 4 9 10 6 12 19 32 23 25 6 24 23 22 29 24 25 22 20 19 17 20 21 18 20 19
6 9 16 17 18 5 3 6 10 5 9 7 14 10 8 4 2 7 12 4 12 10 5 17 32 43 34 39 47 21 26 24 28 23 24 22 22 23 22 23 23 24 23 22
10 15 19 17 14 6 5 6 9 4 6 7 10 6 9 6 2 14 15 14 8 6 6 5 21 35 34 16 36 33 26 28 26 22 17 19 17 22 24 26 25 26 26 22
11 19 18 11 1 3 7 7 8 6 3 3 4 2 4 5 7 9 10 15 3 7 6 6 6 24 26 29 34 30 26 26 24 22 21 22 23 24 24 25 24 30 27 23
15 11 9 4 4 5 9 7 1 4 5 4 3 5 7 6 5 9 6 12 6 9 6 7 8 17 8 26 33 33 27 24 22 20 22 20 22 23 25 25 21 32 30 26
11 8 6 7 7 8 7 4 8 5 3 4 7 6 6 3 3 4 3 6 8 9 8 7 12 18 23 19 24 27 24 19 16 14 14 17 20 25 27 30 29 22 16 21
9 9 8 4 4 6 6 0 4 4 3 5 6 8 2 11 10 10 9 6 8 9 8 8 8 11 17 23 22 18 16 10 5 2 4 9 16 21 25 30 28 24 20 11
7 6 9 7 8 8 7 8 5 4 5 3 10 4 7 18 20 14 14 8 9 10 8 9 7 10 13 12 17 17 12 9 4 4 8 11 18 24 25 25 24 22 23 14
6 9 8 8 6 7 9 5 10 3 5 5 4 4 9 21 24 6 9 8 9 9 9 9 10 14 13 14 13 10 9 5 2 4 8 13 15 20 18 9 2 9 10 8
10 7 12 9 8 9 9 6 6 4 3 3 5 9 11 22 18 5 7 9 9 8 9 8 9 12 13 15 12 13 10 9 5 3 5 11 11 13 12 9 8 6 5 7
7 3 6 3 5 7 4 4 4 6 5 4 1 5 6 23 15 4 9 13 10 9 10 9 9 14 18 15 12 8 6 8 6 7 2 6 6 9 13 11 7 5 2 3
9 4 1 4 8 10 9 5 7 5 4 5 4 5 6 14 13 10 2 9 10 12 12 8 12 16 15 12 8 8 5 4 3 9 0 1 2 1 5 5 7 9 11 13
5 3 2 6 5 10 5 9 9 7 5 5 5 5 13 4 12 13 5 12 12 12 12 13 9 5 16 13 7 7 7 8 7 3 3 7 5 7 10 12 12 13 15 17
5 2 4 7 5 4 6 9 14 4 4 7 10 8 12 15 17 14 11 11 10 14 15 12 8 11 15 11 12 14 12 10 8 8 10 8 5 10 10 12 13 14 16 18
3 2 7 4 5 1 5 5 13 15 4 1 3 10 15 12 10 10 10 10 16 16 14 11 8 8 15 12 12 14 14 12 12 11 11 11 10 8 8 9 11 11 13 14
1 4 6 5 5 1 9 6 14 20 25 1 13 8 6 8 8 8 9 10 12 12 16 14 12 12 16 14 13 12 11 10 9 8 7 8 10 12 13 13 14 14 14 14
5 2 2 2 4 1 4 10 14 15 12 5 3 8 9 8 8 8 9 14 11 10 10 11 12 15 19 17 14 12 10 7 4 1 1 3 6 7 12 15 16 16 16 17
4 5 4 1 3 2 4 2 10 9 14 22 8 13 12 9 8 8 8 10 11 13 11 9 13 19 18 19 15 15 13 8 8 8 7 8 6 5 9 14 17 18 20 20
6 5 3 4 2 4 6 3 3 1 10 11 3 11 11 9 6 8 15 18 16 28 8 13 21 20 15 20 21 16 10 8 10 11 7 3 3 6 10 12 14 18 20 22
16 11 3 3 4 5 3 7 2 7 9 15 7 7 9 7 4 1 5 22 25 18 20 6 16 15 9 8 9 7 2 7 10 10 9 10 11 12 14 17 21 21 20 21
4 5 7 2 2 2 4 7 13 7 7 5 7 5 6 5 5 9 5 10 15 27 8 15 22 21 19 13 9 10 13 11 8 8 11 13 16 19 19 22 26 28 27 26
3 5 2 3 7 5 9 6 5 8 2 8 6 9 11 12 15 14 16 15 21 18 19 17 18 14 14 12 5 8 5 3 9 13 15 14 17 21 25 28 29 29 28 27
3 2 4 2 7 21 18 6 6 6 4 5 6 5 11 11 12 10 8 8 8 6 17 20 19 18 16 14 11 6 5 7 9 11 12 14 17 19 22 27 32 31 26 24
3 4 2 3 2 2 6 6 4 6 7 7 7 14 14 8 10 7 6 5 4 10 18 17 15 13 11 11 10 8 7 8 9 12 14 16 16 21 24 26 26 25 24 24
10 3 8 6 14 1 4 5 6 7 7 12 9 10 8 12 11 10 8 8 14 17 16 15 15 14 12 11 11 13 17 18 17 16 17 19 19 17 21 24 17 21 25 24
13 12 8 5 1 5 4 7 5 7 4 5 8 7 9 10 10 13 10 17 20 20 18 17 16 17 18 18 19 20 20 21 22 20 19 18 15 14 20 24 29 29 27 28
Wind_Direction
224 213 236 240 247 252 192 229 275 312 136 95 58 94 77 8 34 31 140 134 169 226 222 191 136 104 225 177 263 190 190 193 191 186 190 198 214 227 226 224 215 223 223 227
249 222 247 251 256 121 309 259 270 292 131 113 82 34 349 40 324 50 20 185 188 234 253 178 153 162 196 178 191 202 202 185 179 188 200 209 219 227 231 233 228 216 223 224
213 232 236 241 258 162 227 239 262 187 161 156 116 21 348 298 35 34 8 343 143 130 34 188 167 184 195 198 196 208 198 196 202 209 203 209 231 231 229 238 231 221 222 220
228 242 240 247 202 291 231 228 267 352 98 202 130 226 308 287 319 87 140 265 175 106 72 34 49 181 194 198 199 202 195 200 208 209 209 222 233 241 238 239 232 220 218 207
248 241 259 163 265 225 256 296 359 316 314 128 9 90 269 10 353 294 213 255 123 104 97 58 33 58 184 175 180 190 192 194 207 210 218 233 244 251 257 261 247 226 214 218
253 265 246 196 202 252 265 356 322 305 209 302 191 120 294 270 232 288 244 240 120 115 104 83 69 71 73 152 166 179 185 192 204 217 240 253 265 266 270 263 258 247 232 216
287 275 283 178 313 270 259 217 303 323 25 223 64 53 217 9 330 283 285 150 125 117 103 86 67 84 86 99 120 138 147 150 175 243 266 311 309 303 292 278 273 241 218 218
209 266 243 230 188 223 232 192 170 262 182 35 48 338 308 305 322 279 259 134 118 106 111 105 103 94 97 94 97 109 104 99 91 357 344 331 325 323 309 292 269 254 224 233
217 251 242 205 165 190 272 295 241 285 331 105 132 104 329 314 298 344 145 142 139 134 134 140 145 134 128 119 117 115 118 111 72 82 15 356 358 8 2 16 288 165 182 202
259 301 316 178 167 220 177 240 6 340 85 78 154 165 183 228 268 245 197 147 138 135 117 108 106 131 142 134 129 129 134 142 141 56 25 9 11 16 22 50 76 115 161 200
227 186 284 306 166 211 270 273 261 99 85 134 154 243 210 217 229 269 238 169 153 131 114 111 118 110 104 103 111 114 152 173 195 169 98 38 49 45 44 52 68 50 140 250
208 158 119 258 314 328 239 198 181 115 236 141 149 277 234 208 230 255 257 125 118 120 124 126 119 120 116 117 128 117 79 53 173 175 353 287 184 280 341 7 14 358 332 310
213 281 89 354 330 339 337 355 7 130 159 126 130 227 253 211 240 233 214 115 116 127 109 93 73 117 101 93 86 92 63 77 73 176 268 240 239 258 281 302 307 306 301 301
71 244 194 189 183 165 292 346 325 358 86 160 219 140 213 225 214 206 151 144 127 119 123 135 174 108 109 103 91 87 69 59 49 45 31 44 308 312 308 313 304 300 295 288
118 218 83 69 114 93 274 293 295 358 291 149 280 136 165 166 155 149 153 143 132 137 138 143 132 125 115 110 98 89 84 77 69 67 57 45 38 32 26 16 8 3 2 358
207 168 128 186 170 348 285 297 353 348 331 64 93 87 147 150 127 134 131 124 125 134 131 136 134 134 134 132 116 109 104 93 81 66 57 47 33 28 21 14 6 4 6 3
169 186 92 60 91 162 55 7 8 337 299 78 11 168 117 127 132 143 133 139 149 146 139 139 144 138 140 146 150 152 143 138 124 93 303 332 336 350 349 348 352 353 354 352
75 42 47 120 9 150 177 31 7 340 337 336 296 150 146 142 151 155 147 148 148 156 148 147 145 152 170 176 179 174 179 189 207 219 246 269 274 308 331 337 336 335 335 338
49 61 346 131 117 299 322 345 127 217 297 275 195 125 135 153 127 65 77 78 45 346 107 148 169 166 178 189 184 185 188 215 226 233 267 344 352 334 329 328 323 318 316 318
7 359 51 282 133 196 235 190 149 25 318 284 116 131 134 126 125 277 359 94 104 212 261 149 149 165 175 174 74 167 78 25 44 67 28 8 359 347 336 326 321 321 315 309
7 284 194 170 199 81 230 158 85 80 240 314 47 111 98 92 147 149 159 92 65 0 5 65 82 79 75 64 76 79 73 70 50 26 8 350 344 345 338 329 323 321 319 316
249 317 7 86 35 340 310 270 160 198 72 34 86 99 100 93 93 98 83 87 84 93 299 76 74 62 52 46 74 110 87 352 333 329 330 324 326 323 323 320 317 315 313 307
4 60 305 165 185 225 234 101 33 41 33 88 88 106 100 103 117 126 138 134 130 166 75 66 64 68 49 42 34 11 330 338 331 326 322 318 314 311 313 309 309 308 305 299
273 195 210 348 127 171 103 115 96 59 24 28 61 86 96 112 121 127 124 150 198 100 86 74 59 44 28 33 47 36 9 336 319 311 304 304 303 308 307 308 313 306 303 303
206 136 202 260 276 223 15 141 110 92 40 92 74 87 93 90 98 111 101 85 78 73 62 55 44 26 23 14 356 352 345 335 324 320 316 309 305 302 311 314 322 325 317 318
208 187 179 201 176 117 24 21 89 100 105 69 121 101 89 91 93 86 86 79 78 72 56 44 35 32 21 32 30 17 8 6 1 350 339 320 310 316 314 311 304 304 302 305